Regional Weather Roundup
Issued by NWS Newport/Morehead, NC

Current Version | Previous Version | Text Only | Print | Product List | Glossary On
Versions: 1 2 3 4 5 6 7 8 9 10 11 12 13 14 15 16 17 18 19 20 21 22 23 24 25 26 27 28 29 30 31 32 33 34 35 36 37 38 39 40 41 42 43 44 45 46 47 48 49 50
000
ASUS42 KMHX 211110
RWRMHX
WEATHER ROUNDUP FOR EASTERN NORTH CAROLINA
NATIONAL WEATHER SERVICE NEWPORT/MOREHEAD CITY NC
600 AM EST SUN JAN 21 2018

NOTE: "FAIR" INDICATES FEW OR NO CLOUDS BELOW 12,000 FEET
WITH NO SIGNIFICANT WEATHER AND/OR OBSTRUCTIONS TO VISIBILITY

NCZ015>017-031-032-045>047-102-103-211200-
NORTH COAST

CITY           SKY/WX    TMP DP  RH WIND       PRES   REMARKS
EDENTON        FAIR      42  32  67 CALM      30.20S
ELIZABETH CITY FAIR      38  34  85 W5        30.19R
KITTY HAWK     FAIR      40  29  64 CALM      30.18R
MANTEO         FAIR      41  29  63 W5        30.20R

$$

NCZ045>047-081-094-103-104-211200-
CENTRAL COAST

CITY           SKY/WX    TMP DP  RH WIND       PRES   REMARKS
FRISCO         FAIR      44  34  67 W7        30.19R

$$

NCZ095-097-098-100-101-211200-
SOUTHERN COAST

CITY           SKY/WX    TMP DP  RH WIND       PRES   REMARKS
BEAUFORT       FAIR      42  38  85 SW3       30.22R
CEDAR ISLAND   NOT AVBL
JACKSONVILLE   FAIR      38  32  79 CALM      30.23R
PINEY ISLAND   NOT AVBL
WILMINGTON     FAIR      39  34  82 W3        30.25R


$$

NCZ011>013-027>030-043-044-078>080-089-090>093-098-211200-
COASTAL PLAIN

CITY           SKY/WX    TMP DP  RH WIND       PRES   REMARKS
AHOSKIE        FAIR      30  29  97 CALM      30.20S
CLINTON        FAIR      33  30  88 CALM      30.24R
ELIZABETHTOWN  NOT AVBL
GOLDSBORO      FAIR      39  26  59 W3        30.20R
GREENVILLE     FAIR      34  28  80 CALM      30.22R
HAVELOCK       NOT AVBL
KENANSVILLE    FAIR      32  28  86 SW5       30.23R
KINSTON        FAIR      38  27  62 CALM      30.22R
NEW BERN       FAIR      42  28  57 W5        30.22R
RICHLANDS      FAIR      31  28  89 S5        30.24R
ROCKY MOUNT    NOT AVBL
WASHINGTON     FAIR      35  27  73 CALM      30.21S
WHITEVILLE     FAIR      36  32  86 CALM      30.23S

$$

AMZ130-135-150-152-154-156-158-170-250-252-270-ANZ085-086-088-633-658-670-211200-
MARINE OBSERVATIONS

STATION/POSITION TIME  TEMP    WIND        PRES    WAVE   SWELL
                       AIR SEA DIR/SP/G            HT/PER HT/PER
                 (UTC) (F)     (DEG/KT/KT) (MB)    (FT/S) (FT/S)
CHESAPEAKE LIGHT NOT AVBL
64 E VA BEACH    NOT AVBL
DUCK             NOT AVBL
2 E DUCK         NOT AVBL
OREGON INLET     NOT AVBL
13E OREGON INLT  NOT AVBL
HATTERAS CG      NOT AVBL
DIAMOND BUOY     NOT AVBL
CAPE LOOKOUT     NOT AVBL
BEAUFORT LAB     NOT AVBL
30 SE NEW RVR IN NOT AVBL
30 SE NEW RVR IN NOT AVBL
27 SE WRIGHTSVLE NOT AVBL
5 SE WRIGHTSVLE  NOT AVBL
225 S CAPE HAT   NOT AVBL
41 SE CHARLESTON NOT AVBL

$$




USA.gov is the U.S. government's official web portal to all federal, state and local government web resources and services.